Weather History for Kalispell, MT

Change the Weather History Date:

Saturday, April 20, 2013

  Actual Average Record
Temperature  
Mean Temperature 46 °F 45 °F  
Max Temperature 57 °F 58 °F 80 °F (2010)
Min Temperature 35 °F 32 °F 9 °F (1927)
Degree Days  
Heating Degree Days 19 20  
Month to date heating degree days 497 450  
Since 1 July heating degree days 6677 7221  
Cooling Degree Days 0 0  
Month to date cooling degree days 0 0  
Year to date cooling degree days 0 0  
Moisture  
Dew Point 37 °F    
Average Humidity 68    
Maximum Humidity 92    
Minimum Humidity 43    
Precipitation  
Precipitation 0.46 in 0.05 in 0.46 in (2013)
Month to date precipitation 1.32 0.81  
Year to date precipitation 3.27 4.20  
Snow  
Snow 0.00 in - - ()
Month to date snowfall 0.3  
Year to date snowfall 8.6  
Since 1 July snowfall 17.4  
Snow Depth 0.00 in    
Sea Level Pressure  
Sea Level Pressure 29.95 in    
Wind  
Wind Speed 10 mph (SSW)    
Max Wind Speed 25 mph    
Max Gust Speed 33 mph    
Visibility 9 miles    
Events Rain    
T = Trace of Precipitation, MM = Missing Value Source: NWS Daily Summary

Daily Weather History Graph

Daily Weather History Graph

Search for Another Location

Airport:

Trip Planner

Search our weather history database for the weather conditions in past years. The results will help you decide how hot, cold, wet, or windy it might be!

Date:

Astronomy

Apr. 20, 2013 Rise Set
Actual Time 6:36 AM MDT 8:35 PM MDT
Civil Twilight 6:03 AM MDT 9:09 PM MDT
Nautical Twilight 5:22 AM MDT 9:50 PM MDT
Astronomical Twilight 4:36 AM MDT 10:37 PM MDT
Moon 3:00 PM MDT 3:53 AM MDT
Length of Visible Light 15h 05m
Length of Day
13h 58m
Waxing Gibbous, 71% of the Moon is Illuminated
Apr 20
Waxing Gibbous
Apr 25
Full
May 2
Last Quarter
May 9
New
May 17
First Quarter

Hourly Weather History & Observations

Time (MDT) Temp. Windchill Dew Point Humidity Pressure Visibility Wind Dir Wind Speed Gust Speed Precip Events Conditions
12:55 AM 44.1 °F 40.8 °F 39.9 °F 85% 29.91 in 10.0 mi South 5.8 mph - 0.01 in   Overcast
1:55 AM 44.1 °F 38.6 °F 41.0 °F 89% 29.91 in 10.0 mi SSE 10.4 mph - N/A   Overcast
2:55 AM 43.0 °F 37.7 °F 41.0 °F 93% 29.90 in 10.0 mi SSE 9.2 mph - 0.00 in Rain Light Rain
3:55 AM 42.1 °F 36.1 °F 41.0 °F 96% 29.91 in 10.0 mi SSE 10.4 mph - 0.01 in   Overcast
4:55 AM 42.1 °F 37.1 °F 39.9 °F 92% 29.92 in 10.0 mi SSE 8.1 mph - N/A   Overcast
5:55 AM 42.1 °F 37.1 °F 39.0 °F 89% 29.93 in 10.0 mi SSE 8.1 mph - N/A   Overcast
6:55 AM 42.1 °F 36.1 °F 39.0 °F 89% 29.93 in 10.0 mi South 10.4 mph - N/A   Overcast
7:55 AM 43.0 °F 37.2 °F 39.0 °F 86% 29.95 in 10.0 mi SSE 10.4 mph - N/A   Overcast
8:55 AM 46.0 °F 41.0 °F 39.9 °F 79% 29.96 in 10.0 mi South 10.4 mph - N/A   Mostly Cloudy
9:55 AM 48.0 °F - 39.0 °F 71% 29.95 in 10.0 mi South 9.2 mph - N/A   Overcast
10:55 AM 50.0 °F - 36.0 °F 59% 29.94 in 10.0 mi SSW 10.4 mph - N/A   Overcast
11:55 AM 51.1 °F - 35.1 °F 54% 29.94 in 10.0 mi West 5.8 mph - 0.00 in   Mostly Cloudy
12:55 PM 55.0 °F - 34.0 °F 45% 29.92 in 10.0 mi SW 15.0 mph 23.0 mph N/A   Mostly Cloudy
1:55 PM 52.0 °F - 33.1 °F 49% 29.93 in 10.0 mi West 20.7 mph 29.9 mph N/A   Mostly Cloudy
2:55 PM 53.1 °F - 34.0 °F 48% 29.92 in 10.0 mi WSW 6.9 mph - N/A   Mostly Cloudy
3:55 PM 51.1 °F - 34.0 °F 52% 29.93 in 10.0 mi WSW 10.4 mph 27.6 mph 0.00 in Rain Light Rain
4:55 PM 54.0 °F - 28.9 °F 38% 29.91 in 10.0 mi West 12.7 mph 26.5 mph 0.00 in   Mostly Cloudy
5:55 PM 52.0 °F - 30.0 °F 43% 29.92 in 10.0 mi WSW 18.4 mph 25.3 mph N/A   Overcast
6:55 PM 48.0 °F - 37.9 °F 68% 29.96 in 10.0 mi SW 10.4 mph - 0.00 in   Mostly Cloudy
7:55 PM 46.9 °F - 37.0 °F 68% 29.97 in 10.0 mi SSW 8.1 mph - N/A   Overcast
8:55 PM 44.1 °F 38.6 °F 39.0 °F 82% 29.99 in 10.0 mi SSW 10.4 mph - 0.01 in   Overcast
9:46 PM 42.8 °F 37.5 °F 39.2 °F 87% 29.97 in 6.0 mi SSW 9.2 mph - 0.03 in Rain Rain
9:55 PM 42.1 °F 39.2 °F 39.0 °F 89% 30.01 in 5.0 mi SW 4.6 mph - 0.08 in Rain Rain
10:45 PM 39.2 °F - 37.4 °F 93% 29.98 in 10.0 mi Calm Calm - 0.15 in Rain Light Rain
10:55 PM 39.9 °F - 37.9 °F 93% 30.02 in 5.0 mi Calm Calm - 0.17 in Rain Rain
11:55 PM 37.9 °F 32.7 °F 36.0 °F 93% 30.01 in 6.0 mi South 6.9 mph - 0.19 in Rain Rain